TIME,DELAY(SENSOR),PRES,T(CTD),SAL,OXYGEN,RAWTEMP,T(OPTODE),TCPHASE,FLUOR,BETA(BETA700),BETA(BETA412),BETA(BETA440),CDOM,C(CSC),ED(ED412.40),ED(ED444.00),ED(ED489.70),ED(ED554.30),LU(LU411.80),LU(LU443.40),LU(LU489.60),LU(LU554.10),COMP,TILTX,TILTX(TILTY),CHECK
1350162994,5810,497.1000061035156000,7.0075001716613770,34.1202011108398440,92.0056991577148400,587.4884033203125000,6.9876999855041500,47.3604888916015600,51,106,91,81,79,15174,2147745490,2147422628,2148005412,2147874459,2147629805,2147082240,2148246774,2147200978,2391,5,13,20518
1350163121,5811,486.5799865722656000,7.2437000274658200,34.1220016479492200,98.9746475219726600,580.2106933593750000,7.2216992378234860,46.4926109313964840,51,107,90,79,78,15173,2147746413,2147421504,2148003602,2147874276,2147627574,2147080420,2148240064,2147200164,2861,4,13,58931
1350163262,5803,475.6499938964844000,7.3902997970581055,34.1207008361816400,102.0222015380859400,575.7249755859375000,7.3656902313232420,46.1006011962890600,51,105,90,78,79,15177,2147749211,2147420224,2148003072,2147875090,2147629028,2147084690,2148244269,2147200265,2351,5,13,16709
1350163413,5809,465.1400146484375000,7.6114997863769530,34.1161003112793000,109.0161972045898400,568.7205200195312000,7.5901741981506350,45.2702713012695300,51,104,88,80,78,15174,2147746130,2147423305,2148004105,2147872603,2147623917,2147084425,2148245376,2147201865,1544,4,13,40892
1350163596,5809,452.5499877929687500,7.8527002334594730,34.1179008483886700,118.0297012329101600,561.1558227539062000,7.8321318626403810,44.2578887939453100,51,105,87,81,78,15177,2147746166,2147421321,2148005174,2147873170,2147627053,2147084324,2148241024,2147200868,1478,4,13,54547
1350163725,5807,441.2900085449219000,8.0771999359130860,34.1080017089843750,125.8955993652343800,553.9600830078125000,8.0618352890014650,43.3947792053222660,50,105,89,80,76,15176,2147746825,2147422848,2148001929,2147874889,2147627520,2147086317,2148235437,2147203008,1101,4,13,40524
1350163852,5809,430.0400085449219000,8.1920995712280270,34.1076011657714840,133.9134063720703000,550.1939697265625000,8.1818866729736330,42.6055488586425800,51,106,88,79,77,15175,2147744758,2147420059,2148003062,2147872164,2147622601,2147091081,2148240658,2147201499,410,4,13,44958
1350163969,5806,419.2600097656250000,8.4980001449584960,34.1048011779785160,143.7705993652343800,540.9011840820312000,8.4776077270507810,41.5967102050781250,50,105,87,79,75,15172,2147743268,2147422409,2148006043,2147871616,2147624365,2147092416,2148239058,2147203766,1464,4,13,16146
1350164084,5808,408.6900024414062500,8.6548004150390620,34.1050987243652340,152.5030059814453000,535.8784179687500000,8.6371574401855470,40.7946090698242200,50,105,89,81,75,15173,2147740790,2147422427,2148003904,2147871881,2147624146,2147094966,2148238464,2147200429,1300,4,13,40515
1350164213,5809,396.6400146484375000,8.6546001434326170,34.1063003540039060,154.6206970214843800,535.5863037109375000,8.6464309692382810,40.6197204589843750,50,105,92,80,75,15170,2147740928,2147423058,2148001782,2147874212,2147620297,2147091712,2148238281,2147204406,684,4,14,11606
1350164328,5809,386.3500061035156000,9.0956001281738280,34.1046981811523440,161.3370971679687500,522.7905883789062000,9.0519695281982420,39.8762588500976560,50,108,89,79,74,15173,2147740800,2147421595,2148002212,2147873417,2147619977,2147095945,2148232219,2147204105,964,4,13,48718
1350164455,5802,375.3999938964844000,9.3723001480102540,34.1129989624023440,172.9165954589843800,512.8643798828125000,9.3657083511352540,38.8475112915039060,49,107,90,80,73,15176,2147743350,2147422116,2148003190,2147872201,2147620333,2147096758,2148228745,2147199497,1358,4,13,53194
1350164584,5809,364.7000122070312500,9.6324996948242190,34.1228981018066400,179.1354064941406200,504.9413146972656000,9.6156206130981450,38.2738914489746100,50,106,88,81,73,15173,2147739456,2147422144,2148001462,2147874450,2147613970,2147101037,2148227876,2147201910,1659,4,13,53872
1350164723,5808,353.6000061035156000,9.9776000976562500,34.1281013488769500,186.7303009033203000,493.5663146972656000,9.9736366271972660,37.5647087097168000,50,105,91,81,73,15173,2147737965,2147423104,2148002505,2147872694,2147612973,2147103323,2148229092,2147204736,2679,4,14,47250
1350164864,5808,342.9899902343750000,10.4153003692626950,34.1408996582031250,194.5516052246093800,480.1206970214844000,10.3956899642944340,36.8300895690918000,49,108,88,80,71,15175,2147734427,2147424658,2148002505,2147872054,2147610322,2147107474,2148226066,2147204306,122,4,14,10779
1350165027,5810,332.1600036621094000,10.7722997665405270,34.1449012756347660,199.8910980224609400,467.9898986816406000,10.7754802703857420,36.2947998046875000,49,105,88,80,69,15172,2147736713,2147422464,2147999972,2147873417,2147611986,2147104018,2148221312,2147203382,2568,4,14,61665
1350165187,5811,320.0799865722656000,11.1443996429443360,34.1631011962890600,204.0473022460937500,455.7012023925781000,11.1592798233032230,35.8394584655761700,49,103,91,80,69,15170,2147736073,2147424658,2147996425,2147873243,2147608201,2147114304,2148217563,2147208384,1911,4,13,20641
1350165302,5809,309.7999877929687500,11.9833002090454100,34.2053985595703100,210.5010986328125000,430.3736877441406000,11.9476003646850590,35.0505714416503900,50,106,87,79,70,15174,2147736210,2147422281,2148000704,2147873901,2147606957,2147112384,2148221824,2147209554,2531,5,14,62664
1350165443,5810,298.2999877929687500,12.4854001998901370,34.2431983947753900,214.6044006347656200,413.2623901367187500,12.4782896041870120,34.5457191467285160,48,105,83,80,68,15172,2147729664,2147423460,2148002413,2147869613,2147601453,2147118619,2148215168,2147206189,222,4,13,22388
1350165582,5805,287.7500000000000000,12.9921998977661130,34.2644996643066400,213.7406005859375000,397.4425964355469000,12.9676904678344730,34.3476181030273440,48,106,88,79,68,15167,2147726601,2147426267,2148001325,2147870528,2147598473,2147123227,2148213494,2147207716,2999,4,13,10491
1350165765,5811,273.9700012207031000,13.6733999252319340,34.2921981811523440,215.2698974609375000,374.2948913574219000,13.6818704605102540,33.9062690734863300,48,105,90,81,68,15167,2147728082,2147425965,2148008603,2147872813,2147597540,2147128246,2148210340,2147210578,169,4,14,10231
1350165880,5809,263.1600036621094000,14.3519001007080080,34.3493995666503900,215.2937927246093800,351.9851074218750000,14.3683004379272460,33.5685501098632800,50,105,91,81,68,15160,2147720256,2147424676,2148009590,2147875163,2147591570,2147134902,2148203830,2147208758,2708,3,14,40551
1350166007,5807,252.3500061035156200,15.1142997741699220,34.4199981689453100,214.3715057373047000,322.4921875000000000,15.2733802795410160,33.1828193664550800,48,107,90,81,67,15162,2147721462,2147432374,2148035739,2147870518,2147592649,2147148672,2148216795,2147209408,1895,3,15,4459
1350166148,5807,242.1499938964843800,15.9905996322631840,34.5288009643554700,215.8735961914062500,300.2460021972656000,15.9546604156494140,32.7761192321777340,49,107,87,80,66,15159,2147716361,2147429714,2148026230,2147869632,2147585188,2147146377,2148204982,2147211821,1572,4,14,34681
1350166311,5810,230.7899932861328000,16.9475002288818360,34.6652984619140600,215.6990051269531200,267.5958862304687500,16.9529991149902340,32.3188705444335940,49,105,88,80,65,15160,2147716827,2147445248,2148076790,2147874176,2147581010,2147165339,2148226020,2147213641,706,3,14,17971
1350166447,5806,219.6399993896484400,17.9668998718261720,34.7859992980957000,214.4839019775390600,234.9122924804687500,17.9513206481933600,31.9261398315429700,51,107,91,80,65,15153,2147714523,2147452105,2148096210,2147872192,2147576667,2147175698,2148229037,2147216548,3362,3,14,24018
1350166574,5811,207.6199951171875000,18.7308998107910160,34.8919982910156250,213.4674987792968800,209.4562988281250000,18.7287292480468750,31.6295509338378900,54,106,88,82,65,15145,2147711817,2147457609,2148098642,2147870793,2147572123,2147189120,2148229586,2147216786,294,3,14,34175
1350166697,5809,196.6799926757812500,19.4638004302978500,34.9962005615234400,215.6643981933593800,185.1242065429687500,19.4721202850341800,31.1805496215820300,58,107,89,81,64,15146,2147727268,2147535524,2148340333,2147872795,2147575259,2147236388,2148337389,2147222317,1056,3,15,61753
1350166752,5809,192.5800018310547000,19.7490997314453120,35.0429992675781250,218.8061981201172000,175.9801025390625000,19.7516403198242200,30.8925209045410160,59,108,87,80,63,15140,2147723501,2147521929,2148283008,2147870966,2147574564,2147230592,2148309622,2147218596,942,2,15,59906
1350166807,5809,188.6600036621093800,19.8757991790771500,35.0592994689941400,219.4132995605468800,171.9223937988281200,19.8757190704345700,30.8067207336425780,62,110,86,81,63,15140,2147721654,2147509138,2148238208,2147873161,2147572790,2147228114,2148288164,2147222390,324,3,14,24686
1350166862,5810,184.7500000000000000,20.0657997131347660,35.0872001647949200,219.6878967285156200,165.4597930908203000,20.0733795166015620,30.7061405181884770,62,110,88,81,64,15138,2147731419,2147550665,2148354048,2147872859,2147575643,2147251949,2148336146,2147225252,3160,3,15,58597
1350166917,5809,180.8899993896484400,20.3278999328613280,35.1198997497558600,220.8424987792968800,157.8256988525390600,20.3069591522216800,30.5452995300292970,66,111,88,82,64,15129,2147734308,2147558299,2148361115,2147874221,2147576374,2147253723,2148349750,2147225764,3484,3,15,54604
1350166972,5807,177.1600036621093800,20.4104003906250000,35.1344985961914060,221.9844970703125000,155.1419982910156200,20.3890991210937500,30.4513797760009770,67,113,88,82,63,15133,2147731200,2147534326,2148278921,2147871533,2147571081,2147243300,2148302683,2147223734,753,3,15,54262
1350167050,5808,172.3200073242187500,20.6511993408203120,35.1660003662109400,223.9956970214843800,146.5437927246093800,20.6523494720459000,30.2364997863769530,72,113,89,81,62,15126,2147740251,2147570468,2148378642,2147874514,2147578020,2147270902,2148348525,2147228507,1442,3,15,25797
1350167129,5807,168.3399963378906200,20.8479995727539060,35.1834983825683600,225.1432952880859400,140.1618957519531200,20.8478507995605470,30.0953598022460940,80,112,88,82,61,15119,2147776530,2147691392,2148697243,2147874203,2147592886,2147340141,2148484105,2147236525,902,2,15,34022
1350167208,5810,164.7500000000000000,21.1117000579834000,35.2164001464843750,225.8421020507812500,132.4116058349609400,21.0853996276855470,29.9590702056884770,85,114,90,83,63,15118,2147800246,2147782006,2148952932,2147874898,2147604196,2147394861,2148614921,2147247085,3339,3,15,9444
1350167299,5808,160.8699951171875000,21.2754001617431640,35.2305984497070300,226.7183990478515600,126.9024963378906200,21.2543392181396500,29.8443603515625000,86,117,91,81,61,15111,2147761856,2147625289,2148498240,2147872987,2147586596,2147312064,2148389220,2147235867,3428,3,15,5927
1350167392,5808,156.9199981689453000,21.3959007263183600,35.2364997863769500,227.1819000244140600,122.7324981689453100,21.3822708129882800,29.7673606872558600,88,117,93,83,63,15109,2147845540,2147892123,2149234706,2147878107,2147619867,2147450029,2148723803,2147252580,3547,2,15,54859
1350167495,5811,152.6999969482422000,21.5883998870849600,35.2332000732421900,227.8399047851562500,116.7138977050781200,21.5669898986816400,29.6573009490966800,94,119,89,82,61,15095,2147882029,2147981129,2149426752,2147882614,2147630308,2147498953,2148804772,2147255579,3037,3,15,40512
1350167622,5809,149.0099945068359400,21.6947994232177730,35.2303009033203100,229.6540985107422000,112.9753036499023400,21.6817893981933600,29.5209808349609380,100,114,89,83,62,15096,2147924498,2148074294,2149611812,2147882313,2147651209,2147536932,2148872393,2147260726,2022,3,15,61610
1350167745,5811,144.7899932861328000,22.0037994384765620,35.2326011657714840,231.9656982421875000,103.2016983032226600,21.9821090698242200,29.2846908569335940,103,114,89,83,62,15090,2148017572,2148266596,2150011081,2147884233,2147681106,2147618816,2149022619,2147274889,2025,2,15,1789
1350167860,5807,140.5700073242187500,22.1476993560791000,35.2372016906738300,234.4282989501953000,98.1550979614257800,22.1373004913330080,29.1039199829101560,102,115,88,83,60,15087,2148125394,2148472082,2150412571,2147890642,2147719606,2147707748,2149165833,2147287561,3198,2,15,49619
1350167951,5809,136.9499969482422000,22.2147006988525400,35.2430992126464840,235.6701049804687500,95.9532928466796900,22.2050399780273440,29.0180397033691400,110,118,91,82,63,15080,2148243840,2148687268,2150833627,2147896685,2147764160,2147804553,2149324013,2147298011,2763,3,15,55782
1350168042,5808,132.1399993896484400,22.2644004821777340,35.2448005676269500,236.2138061523437500,94.1589431762695300,22.2602500915527340,28.9698295593261720,106,118,90,83,62,15077,2148466514,2149077750,2151557056,2147904576,2147847689,2147977590,2149603017,2147323099,2922,2,16,32590
1350168109,5812,127.7300033569336000,22.2896003723144530,35.2472991943359400,236.4757995605468800,93.3521881103515600,22.2850799560546880,28.9473896026611330,109,118,90,81,62,15071,2148732160,2149515940,2152322678,2147921142,2147944429,2148158957,2149890340,2147349824,2947,2,16,18508
1350168164,5810,124.2399978637695300,22.3469009399414060,35.2449989318847660,237.0500030517578000,91.3537673950195300,22.3465900421142580,28.8957405090332030,109,117,89,84,61,15070,2148997942,2149949750,2153058678,2147931492,2148046299,2148343305,2150169472,2147371821,3171,2,16,35825
1350168231,5807,120.5400009155273400,22.4333000183105470,35.2464981079101560,237.6959075927734400,88.8184585571289000,22.4246406555175780,28.8335990905761720,111,117,91,81,61,15071,2149346834,2150474477,2153920795,2147950317,2148177325,2148568054,2150496786,2147400484,3466,2,16,52190
1350168324,5809,116.5199966430664000,22.4888992309570300,35.2462005615234400,238.4084930419922000,86.3300704956054700,22.5012798309326170,28.7695693969726560,111,116,88,82,62,15066,2149996269,2151448274,2155540461,2147978486,2148427456,2148989705,2151116333,2147457499,426,3,16,8431
1350168439,5808,113.5299987792968800,22.8474006652832030,35.2422981262207000,239.9326019287109400,75.3840713500976600,22.8386592864990230,28.5618705749511720,110,118,91,84,61,15064,2150649572,2152396726,2157100498,2148011456,2148687661,2149407533,2151719414,2147509065,499,2,15,10470
1350168661,5808,109.0000000000000000,23.3778991699218750,35.2308998107910160,243.8930969238281200,58.7230911254882800,23.3530998229980470,28.1763496398925780,104,121,88,83,61,15055,2151229165,2152963337,2157398729,2148031734,2148964544,2149679067,2151897179,2147533760,2452,2,16,30124
1350168764,5810,104.6699981689453100,23.7490997314453120,35.2397003173828100,244.7042999267578000,47.7331390380859400,23.6930999755859380,28.0041408538818360,106,123,94,83,60,15037,2150690093,2151857755,2155085174,2148002368,2148787245,2149220461,2151051730,2147465170,2188,2,16,32551
1350168867,5807,101.1699981689453100,23.9556007385253900,35.2518997192382800,245.1000061035156200,40.4231491088867200,23.9195709228515620,27.8961791992187500,109,127,91,85,60,15023,2150422893,2151354441,2154050459,2147996726,2148678747,2148982637,2150617298,2147437376,2884,2,15,39438
1350168945,5810,98.5899963378906200,24.0291004180908200,35.2617988586425800,245.3287963867187500,37.3229408264160160,24.0156898498535160,27.8479804992675780,105,123,92,85,59,15031,2150852324,2151891008,2154683748,2148017709,2148876022,2149237394,2150909796,2147463899,2295,2,16,61087
1350169000,5810,96.1500015258789000,24.0662002563476560,35.2569999694824200,245.5343017578125000,35.5688095092773440,24.0701007843017580,27.8173904418945300,112,124,94,86,59,15027,2155895762,2159362477,2166229266,2148338916,2150993170,2152554596,2155561517,2147888850,1703,2,16,62600
1350169055,5809,93.7200012207031200,24.1116008758544920,35.2612991333007800,245.9557037353515600,34.4736099243164060,24.1040706634521500,27.7854995727539060,98,125,94,85,61,15020,2152952832,2154751350,2158632667,2148130761,2149844388,2150641252,2152778203,2147629814,1955,2,16,19439
1350169110,5809,91.3899993896484400,24.1522998809814450,35.2622985839843750,246.2393035888672000,33.0924110412597660,24.1469306945800780,27.7561302185058600,102,122,91,86,59,15020,2152144420,2153381110,2156254656,2148083712,2149465408,2149933604,2151626066,2147539190,2184,1,16,25684
1350169165,5811,89.3000030517578100,24.3470001220703120,35.2495994567871100,246.1428070068359400,27.4045791625976560,24.3235301971435550,27.6903400421142580,102,124,93,86,59,15021,2152557924,2153847771,2156719533,2148116397,2149658742,2150153874,2151838820,2147566006,2095,2,16,42902
1350169220,5808,87.8000030517578100,24.5445995330810550,35.2565002441406250,246.2704010009765600,21.3291492462158200,24.5123500823974600,27.6100807189941400,98,130,93,86,58,15011,2152418706,2153573851,2156180653,2148103680,2149614592,2150044891,2151640758,2147548635,1109,1,16,27768
1350169298,5803,86.1900024414062500,24.7238006591796880,35.2513008117675800,246.7487945556640600,15.0987300872802730,24.7061901092529300,27.5131607055664060,92,127,92,86,58,15008,2152952448,2154163757,2156739337,2148139584,2149882459,2150338294,2151914834,2147579328,1016,1,16,1319
1350169377,5809,84.1900024414062500,24.8722991943359380,35.2518005371093750,247.1006011962890600,10.3874797821044920,24.8529090881347660,27.4402198791503900,88,131,93,86,58,15019,2153205074,2154374564,2156767259,2148147501,2150043574,2150496886,2151990866,2147585124,827,2,16,5770
1350169456,5808,82.2600021362304700,24.9465007781982420,35.2552986145019500,247.1125030517578000,7.7094740867614750,24.9363594055175780,27.4069595336914060,92,132,91,86,58,15009,2154314633,2155638848,2158103259,2148200009,2150606336,2151151561,2152652041,2147653586,527,2,16,56486
1350169535,5809,80.2699966430664000,25.0095005035400400,35.2568016052246100,246.8842010498047000,5.7258992195129395,24.9981994628906250,27.3926506042480470,85,128,93,87,60,15007,2158441106,2160668626,2164069632,2148469632,2152593801,2153648036,2155407341,2147930194,435,2,16,13480
1350169614,5811,77.8000030517578100,25.0760993957519530,35.2602005004882800,246.8686065673828000,3.5231080055236816,25.0669002532959000,27.3663501739501950,84,128,95,87,59,15000,2167107264,2171326957,2176669357,2149072704,2156573714,2158658349,2160841526,2148490020,3550,1,16,49466
1350169669,5806,75.4800033569336000,25.1893997192382800,35.2593994140625000,246.4058990478515600,-0.3394961059093475,25.1874408721923830,27.3391208648681640,79,130,92,86,58,14988,2163796187,2166501321,2169823177,2148825005,2155284004,2156688850,2158252717,2148239341,2933,3,16,12616
1350169724,5808,73.4100036621093800,25.5231990814209000,35.2551994323730500,245.0892028808593800,-9.4318361282348630,25.4715194702148440,27.2851390838623050,79,132,95,86,58,14978,2164159149,2166547346,2169355254,2148850258,2155563392,2156851840,2158189366,2148246144,3298,2,17,65194
1350169779,5809,71.8499984741211000,25.5375003814697270,35.2593002319335940,244.8283996582031200,-11.1414098739624020,25.5249900817871100,27.2755107879638670,81,132,95,87,59,14977,2167717650,2170552612,2173649682,2149118555,2157520603,2159175469,2160533449,2148496173,627,2,16,26022
1350169846,5807,69.9499969482421900,25.5604000091552730,35.2598991394043000,244.7276000976562500,-11.9208202362060550,25.5493793487548830,27.2704391479492200,78,133,94,88,58,14980,2163887387,2165366454,2166953938,2148786980,2155631497,2156498843,2157259108,2148173275,507,2,16,27075
1350169924,5809,67.0400009155273400,25.6222991943359380,35.2615013122558600,244.3616027832031200,-14.0176897048950200,25.6149997711181640,27.2606697082519530,76,131,95,87,58,14989,2168868123,2170449673,2171734884,2149184118,2158432182,2159438454,2159789833,2148476059,2839,1,16,62234
1350169979,5807,64.6800003051757800,25.8318004608154300,35.2589988708496100,243.2557983398437500,-20.5455207824707030,25.8194503784179700,27.2291908264160160,74,134,96,86,58,14988,2184558738,2188148096,2190430034,2150464557,2167120786,2169545024,2169584996,2149556224,2501,1,16,16034
1350170034,5808,62.7299995422363300,26.0508995056152340,35.2657012939453100,241.8583068847656200,-27.3599300384521500,26.0331802368164060,27.2071399688720700,72,132,94,87,59,14981,2205214838,2211846006,2216022747,2152647259,2178812260,2183238326,2182782857,2151124196,2437,1,17,873
1350170089,5808,61.1199989318847660,26.2168006896972660,35.2644004821777340,240.8157958984375000,-32.2908782958984400,26.1880207061767580,27.1927700042724600,73,134,94,88,59,14971,2217867428,2226091547,2231260352,2154144493,2186204022,2191621394,2190383250,2152040411,2479,1,16,56916
1350170168,5808,59.3300018310546900,26.3679008483886720,35.2663002014160160,239.4232025146484400,-37.3371009826660160,26.3466606140136720,27.1926193237304700,68,137,100,87,58,14932,2190401142,2192712795,2193257152,2151215323,2171936832,2173871625,2172123035,2149943936,2393,2,16,53717
1350170258,5806,56.6800003051757800,26.4755001068115230,35.2700004577636700,237.7346954345703000,-41.0418510437011700,26.4632301330566400,27.2222404479980470,66,135,99,86,57,14919,2189256768,2190415780,2189859035,2151202669,2171954852,2173115483,2170564928,2149832832,1918,1,16,29707
1350170313,5809,54.3100013732910160,26.5270996093750000,35.2645988464355500,237.1038055419922000,-42.9432106018066400,26.5230998992919920,27.2271194458007800,65,137,96,89,59,14950,2194521417,2195380480,2194316699,2151966299,2176248384,2177131794,2173474660,2150254253,1481,2,16,44748
1350170368,5819,51.9599990844726560,26.6819992065429700,35.2859001159668000,235.5332946777343800,-47.1260414123535160,26.6548900604248050,27.2463607788085940,59,127,93,88,57,14991,2212392064,2214769536,2214105974,2154604233,2189717979,2190940425,2184746468,2151787867,1817,2,16,59193
1350170423,5807,49.7900009155273440,26.7038002014160160,35.2913017272949200,233.7675933837890600,-48.4321899414062500,26.6960697174072270,27.3099193572998050,59,127,92,86,56,14957,2206849965,2208301229,2207262628,2154316086,2189768539,2189922267,2182972525,2151576100,2304,2,16,47031
1350170478,5806,47.5099983215332000,26.7075004577636720,35.2910995483398440,232.9888000488281200,-48.6820907592773440,26.7039508819580080,27.3420906066894530,57,126,92,85,55,15004,2204418166,2205286052,2204075227,2154560054,2190976832,2190054381,2182039725,2151536082,2520,2,17,45718
1350170556,5807,43.6800003051757800,26.7073001861572270,35.2918014526367200,232.7185974121093800,-48.7478904724121100,26.7060203552246100,27.3535804748535160,56,124,95,87,59,15004,2209050770,2209696365,2208362267,2156589705,2199718162,2197172708,2186228068,2152320228,2565,2,16,31493
1350170611,5809,40.4000015258789060,26.7112007141113280,35.2914009094238300,232.5402984619140600,-48.8381690979003900,26.7088699340820300,27.3607101440429700,55,124,93,84,54,14999,2214071972,2214758656,2213446683,2158530578,2208296694,2204431597,2190770724,2153094436,2735,2,16,51333
1350170666,5809,37.2299995422363300,26.7119998931884770,35.2915000915527340,232.5478973388672000,-48.8920593261718750,26.7105693817138670,27.3595294952392580,55,127,94,87,54,15001,2213990409,2214076790,2212415158,2159669961,2212372653,2207084013,2191659072,2153436553,2940,1,16,40960
1350170721,5811,34.0600013732910160,26.7119998931884770,35.2919998168945300,232.6304016113281200,-48.9009208679199200,26.7108497619628900,27.3557701110839840,55,124,94,86,57,14994,2214575296,2214071268,2212161572,2161296310,2216328054,2209553216,2192563172,2153895222,3170,2,16,63924
1350170776,5807,30.8199996948242200,26.7143993377685550,35.2913017272949200,232.7216949462890600,-48.9987716674804700,26.7139301300048830,27.3503799438476560,54,126,94,86,59,14995,2216031835,2214789723,2212515538,2163417508,2220784713,2212464475,2193725824,2154477558,3516,2,16,22090
1350170831,5805,27.3700008392334000,26.7168006896972660,35.2913017272949200,232.6692962646484400,-49.0433197021484400,26.7153396606445300,27.3522701263427730,54,123,95,86,57,14995,2218944859,2216925869,2214116498,2166299510,2227060562,2216870619,2195884928,2155302720,233,1,16,59707